GW1540 Weather Reports


time (UTC)temp
C
wind
direction
speed
KPH
gust
KPH
rain 1hr
cm
rain 24hr
cm
rain mn
cm
humidity
%
barometer
mb
20260905100113 23 263 3.2 8.0 0.00 0.03 0.03 65 1018.2
20260905093109 23 157 1.6 6.4 0.00 0.03 0.03 67 1018.2
20260905091547 22 75 0.0 3.2 0.00 0.03 0.03 73 1017.9
20260905084539 22 61 1.6 3.2 0.00 0.03 0.03 73 1017.7
20260905081603 22 61 0.0 6.4 0.03 0.03 0.03 77 1017.5
20260905080042 20 206 0.0 3.2 0.03 0.03 0.03 84 1017.2
20260905073108 18 206 0.0 1.6 0.03 0.03 0.03 90 1017.3
20260905070108 16 206 1.6 3.2 0.00 0.00 0.00 95 1017.3
20260905063110 14 206 1.6 3.2 0.00 0.00 0.00 95 1017.1
20260905061540 13 206 0.0 3.2 0.00 0.00 0.00 95 1017.2
20260905054609 13 206 0.0 3.2 0.00 0.00 0.00 95 1017.4
20260905051550 11 206 0.0 3.2 0.00 0.00 0.00 95 1017.3
20260905050043 11 206 0.0 3.2 0.00 0.00 0.00 95 1017.3
20260905043100 10 206 0.0 3.2 0.00 0.00 0.00 95 1016.8
20260905040059 10 206 0.0 3.2 0.00 0.00 0.00 94 1017.1
20260905034536 10 206 0.0 3.2 0.00 0.00 0.00 94 1017.3
20260905031613 10 206 0.0 0.0 0.00 0.00 0.00 94 1017.3
20260905030039 10 206 0.0 0.0 0.00 0.00 0.00 94 1017.5
20260905023058 10 206 0.0 0.0 0.00 0.00 0.00 94 1017.5
20260905021546 10 206 0.0 0.0 0.00 0.00 0.00 93 1017.6
20260905020046 11 206 0.0 0.0 0.00 0.00 0.00 94 1017.6
20260905014535 11 206 0.0 0.0 0.00 0.00 0.00 93 1017.5
20260905013033 11 206 0.0 3.2 0.00 0.00 0.00 94 1017.6
20260905010106 11 206 0.0 0.0 0.00 0.00 0.00 93 1017.7
20260905004550 11 206 0.0 0.0 0.00 0.00 0.00 94 1017.9
20260905003045 11 206 0.0 0.0 0.00 0.00 0.00 93 1018.0
20260905001541 11 206 0.0 0.0 0.00 0.00 0.00 92 1018.1
20260904234537 12 206 0.0 0.0 0.00 0.00 0.00 93 1018.4
20260904231552 12 206 0.0 0.0 0.00 0.00 0.00 92 1018.5
20260904230033 12 206 0.0 0.0 0.00 0.00 0.00 92 1018.7
20260904223052 12 206 0.0 0.0 0.00 0.00 0.00 92 1018.9
20260904220132 13 206 0.0 0.0 0.00 0.00 0.00 92 1018.8
20260904214607 12 206 0.0 0.0 0.00 0.00 0.00 92 1018.9
20260904213047 13 206 0.0 0.0 0.00 0.00 0.00 90 1018.8
20260904210046 14 206 0.0 0.0 0.00 0.00 0.00 91 1019.0
20260904203059 15 206 0.0 0.0 0.00 0.00 0.00 90 1019.0
20260904201557 16 206 0.0 3.2 0.00 0.00 0.00 88 1019.1
20260904200048 16 206 0.0 0.0 0.00 0.00 0.00 88 1019.3
20260904193108 17 206 1.6 4.8 0.00 0.00 0.00 89 1019.4
20260904191617 17 206 3.2 6.4 0.00 0.00 0.00 89 1019.3
20260904184602 17 206 3.2 4.8 0.00 0.00 0.00 86 1019.2
20260904181602 18 206 1.6 4.8 0.00 0.00 0.00 83 1019.0
20260904180044 18 206 1.6 6.4 0.00 0.00 0.00 81 1019.0
20260904173050 18 206 1.6 4.8 0.00 0.00 0.00 80 1019.0
20260904170051 20 202 3.2 6.4 0.00 0.00 0.00 75 1019.1
20260904163059 21 219 1.6 6.4 0.00 0.00 0.00 72 1019.1
20260904161550 23 194 1.6 6.4 0.00 0.00 0.00 66 1019.0
20260904154543 25 234 1.6 8.0 0.00 0.00 0.00 56 1018.9
20260904151608 25 253 1.6 6.4 0.00 0.00 0.00 54 1019.3
20260904143122 25 338 1.6 9.7 0.00 0.00 0.00 55 1019.7
20260904141555 25 217 3.2 11.3 0.00 0.00 0.00 55 1019.6
20260904140043 25 66 0.0 14.5 0.00 0.00 0.00 57 1019.7
20260904134541 25 61 3.2 14.5 0.00 0.00 0.00 56 1019.9
20260904131613 25 211 3.2 12.9 0.00 0.00 0.00 60 1020.3
20260904124551 25 142 4.8 16.1 0.00 0.00 0.00 61 1020.5
20260904121608 25 320 4.8 9.7 0.00 0.00 0.00 64 1020.4
20260904114601 24 252 6.4 16.1 0.00 0.00 0.00 62 1020.7
20260904111556 25 264 3.2 12.9 0.00 0.00 0.00 65 1020.9
20260904104618 24 84 3.2 11.3 0.00 0.00 0.00 62 1020.9
20260904103057 24 163 1.6 9.7 0.00 0.00 0.00 63 1020.9
20260904101547 24 209 1.6 11.3 0.00 0.00 0.00 61 1021.0